Weather History for Moline, IL

Change the Weather History Date:

Tuesday, March 12, 2013

  Actual Average Record
Temperature  
Mean Temperature 30 °F 37 °F  
Max Temperature 35 °F 47 °F 80 °F (1990)
Min Temperature 24 °F 28 °F -6 °F (1960)
Degree Days  
Heating Degree Days 35 28  
Month to date heating degree days 438 362  
Since 1 July heating degree days 5071 5160  
Cooling Degree Days 0 0  
Month to date cooling degree days 0 0  
Year to date cooling degree days 0 0  
Moisture  
Dew Point 24 °F    
Average Humidity 76    
Maximum Humidity 88    
Minimum Humidity 63    
Precipitation  
Precipitation 0.12 in 0.09 in 2.01 in (1991)
Month to date precipitation 2.22 1.06  
Year to date precipitation 7.62 4.15  
Snow  
Snow 0.50 in 0.10 in - ()
Month to date snowfall 5.7 1.9  
Since 1 July snowfall 29.6 28.6  
Snow Depth 0.00 in    
Sea Level Pressure  
Sea Level Pressure 30.01 in    
Wind  
Wind Speed 15 mph (West)    
Max Wind Speed 29 mph    
Max Gust Speed 37 mph    
Visibility 6 miles    
Events Fog , Snow    
T = Trace of Precipitation, MM = Missing Value Source: NWS Daily Summary

Daily Weather History Graph

Daily Weather History Graph

Search for Another Location

Airport:

Trip Planner

Search our weather history database for the weather conditions in past years. The results will help you decide how hot, cold, wet, or windy it might be!

Date:

Astronomy

Mar. 12, 2013 Rise Set
Actual Time 7:18 AM CDT 7:05 PM CDT
Civil Twilight 6:50 AM CDT 7:33 PM CDT
Nautical Twilight 6:18 AM CDT 8:05 PM CDT
Astronomical Twilight 5:46 AM CDT 8:37 PM CDT
Moon 7:23 AM CDT (3/12) 8:22 PM CDT (3/12)
Length of Visible Light 12h 42m
Length of Day
11h 47m
New Moon, 1% of the Moon is Illuminated
Mar 12
New Moon
Mar 19
First Quarter
Mar 27
Full
Apr 2
Last Quarter
Apr 10
New

Hourly Weather History & Observations

Time (CDT) Temp. Windchill Dew Point Humidity Pressure Visibility Wind Dir Wind Speed Gust Speed Precip Events Conditions
12:08 AM 28.4 °F 16.2 °F 21.2 °F 74% 29.88 in 10.0 mi West 17.3 mph - N/A   Overcast
12:52 AM 28.9 °F 18.2 °F 21.9 °F 75% 29.91 in 10.0 mi West 13.8 mph - N/A   Overcast
1:25 AM 28.4 °F 18.0 °F 21.2 °F 74% 29.90 in 10.0 mi West 12.7 mph - N/A   Overcast
1:42 AM 28.4 °F 17.5 °F 21.2 °F 74% 29.91 in 10.0 mi West 13.8 mph - N/A   Mostly Cloudy
1:52 AM 28.9 °F 18.2 °F 21.0 °F 72% 29.94 in 10.0 mi West 13.8 mph 23.0 mph N/A   Mostly Cloudy
2:15 AM 28.4 °F 18.0 °F 21.2 °F 74% 29.92 in 10.0 mi West 12.7 mph - N/A   Scattered Clouds
2:52 AM 27.0 °F 16.1 °F 21.0 °F 78% 29.95 in 10.0 mi West 12.7 mph - N/A   Clear
3:52 AM 27.0 °F 15.6 °F 19.0 °F 72% 29.94 in 10.0 mi West 13.8 mph - N/A   Clear
4:52 AM 26.1 °F 16.2 °F 19.9 °F 78% 29.94 in 10.0 mi West 10.4 mph - N/A   Clear
5:52 AM 25.0 °F 16.3 °F 19.9 °F 81% 29.97 in 10.0 mi WSW 8.1 mph - N/A   Clear
6:52 AM 25.0 °F 18.1 °F 21.0 °F 85% 29.97 in 8.0 mi WSW 5.8 mph - N/A   Clear
7:52 AM 25.0 °F 17.1 °F 21.9 °F 88% 29.96 in 7.0 mi WSW 6.9 mph - N/A   Clear
8:52 AM 28.0 °F 19.3 °F 23.0 °F 81% 29.99 in 8.0 mi West 9.2 mph - N/A   Clear
9:52 AM 30.9 °F 19.8 °F 23.0 °F 72% 30.00 in 10.0 mi West 16.1 mph - N/A   Partly Cloudy
10:52 AM 34.0 °F 23.8 °F 25.0 °F 70% 30.00 in 10.0 mi West 16.1 mph - N/A   Partly Cloudy
11:05 AM 33.8 °F 24.3 °F 24.8 °F 70% 29.98 in 10.0 mi WSW 13.8 mph - N/A   Mostly Cloudy
11:52 AM 35.1 °F 25.9 °F 27.0 °F 72% 29.99 in 5.0 mi West 13.8 mph - 0.00 in Snow Light Snow
12:04 PM 33.8 °F 23.2 °F 26.6 °F 75% 29.98 in 1.0 mi WSW 17.3 mph - 0.00 in Snow Light Snow
12:18 PM 32.0 °F 21.6 °F 28.4 °F 87% 29.98 in 1.0 mi West 15.0 mph - 0.00 in Snow Light Snow
12:52 PM 32.0 °F 22.1 °F 28.9 °F 88% 30.00 in 3.0 mi WSW 13.8 mph - 0.01 in Snow Light Snow
1:05 PM 33.8 °F 24.3 °F 28.4 °F 81% 29.98 in 1.8 mi WSW 13.8 mph - 0.00 in Snow Light Snow
1:15 PM 33.8 °F 23.5 °F 30.2 °F 87% 29.98 in 1.0 mi West 16.1 mph 20.7 mph 0.00 in Snow Light Snow
1:21 PM 33.8 °F 21.9 °F 28.4 °F 81% 29.98 in 1.5 mi WSW 21.9 mph 25.3 mph 0.00 in Snow Light Snow
1:27 PM 33.8 °F 23.9 °F 28.4 °F 81% 29.98 in 3.0 mi West 15.0 mph 25.3 mph 0.00 in Snow Light Snow
1:52 PM 33.1 °F 22.2 °F 28.9 °F 85% 30.00 in 6.0 mi West 17.3 mph - 0.00 in   Overcast
2:00 PM 33.8 °F 22.8 °F 28.4 °F 81% 29.98 in 7.0 mi West 18.4 mph - N/A   Overcast
2:52 PM 34.0 °F 23.8 °F 28.9 °F 82% 30.00 in 5.0 mi West 16.1 mph 21.9 mph 0.00 in Snow Light Snow
3:52 PM 33.1 °F 20.1 °F 28.0 °F 82% 30.00 in 1.0 mi West 25.3 mph 33.4 mph 0.00 in Snow Light Snow
4:07 PM 33.8 °F 22.8 °F 30.2 °F 87% 29.98 in 5.0 mi West 18.4 mph 26.5 mph 0.00 in Snow Light Snow
4:26 PM 33.8 °F 21.9 °F 28.4 °F 81% 29.98 in 1.8 mi West 21.9 mph 32.2 mph 0.00 in Snow Light Snow
4:34 PM 32.0 °F 19.2 °F 28.4 °F 87% 29.98 in 0.8 mi West 23.0 mph 28.8 mph 0.00 in Snow Light Snow
4:52 PM 30.9 °F 18.1 °F 27.0 °F 85% 30.01 in 0.5 mi West 21.9 mph 32.2 mph 0.01 in Fog , Snow Snow
5:00 PM 30.2 °F 17.8 °F 28.4 °F 93% 29.99 in 0.2 mi West 19.6 mph 31.1 mph 0.00 in Fog , Snow Snow
5:04 PM 30.2 °F 18.1 °F 28.4 °F 93% 29.99 in 0.5 mi West 18.4 mph 29.9 mph 0.01 in Fog , Snow Light Snow
5:10 PM 30.2 °F 18.1 °F 26.6 °F 86% 29.99 in 1.5 mi West 18.4 mph 25.3 mph 0.01 in Snow Light Snow
5:15 PM 30.2 °F 18.1 °F 26.6 °F 86% 29.99 in 3.0 mi West 18.4 mph 25.3 mph 0.01 in Snow Light Snow
5:28 PM 32.0 °F 21.6 °F 26.6 °F 80% 30.00 in 9.0 mi West 15.0 mph - 0.01 in   Overcast
5:52 PM 30.9 °F 19.1 °F 21.0 °F 67% 30.03 in 10.0 mi WNW 18.4 mph 31.1 mph 0.01 in   Overcast
6:52 PM 28.9 °F 15.8 °F 19.0 °F 67% 30.06 in 10.0 mi WNW 20.7 mph 32.2 mph N/A   Mostly Cloudy
7:52 PM 28.0 °F 14.3 °F 18.0 °F 66% 30.09 in 9.0 mi WNW 21.9 mph 29.9 mph 0.00 in   Overcast
8:20 PM 28.4 °F 14.7 °F 19.4 °F 69% 30.08 in 5.0 mi WNW 21.9 mph 32.2 mph 0.00 in Snow Light Snow
8:42 PM 26.6 °F 14.3 °F 19.4 °F 74% 30.09 in 2.0 mi NW 16.1 mph 29.9 mph 0.00 in Snow Light Snow
8:52 PM 26.1 °F 13.6 °F 21.9 °F 84% 30.12 in 2.0 mi NW 16.1 mph 25.3 mph 0.00 in Snow Light Snow
9:02 PM 26.6 °F 15.7 °F 21.2 °F 80% 30.09 in 8.0 mi WNW 12.7 mph - 0.00 in Snow Light Snow
9:16 PM 26.6 °F 13.8 °F 19.4 °F 74% 30.10 in 8.0 mi WNW 17.3 mph 25.3 mph 0.00 in Snow Light Snow
9:52 PM 27.0 °F 14.7 °F 18.0 °F 69% 30.13 in 10.0 mi WNW 16.1 mph 21.9 mph 0.00 in   Overcast
10:52 PM 27.0 °F 16.1 °F 19.0 °F 72% 30.14 in 7.0 mi NW 12.7 mph - 0.00 in Snow Light Snow
11:12 PM 26.6 °F 15.2 °F 19.4 °F 74% 30.12 in 2.0 mi NW 13.8 mph - 0.00 in Snow Light Snow
11:20 PM 26.6 °F 16.8 °F 19.4 °F 74% 30.12 in 3.0 mi NW 10.4 mph - 0.00 in Snow Light Snow
11:23 PM 26.6 °F 14.7 °F 21.2 °F 80% 30.12 in 1.8 mi NW 15.0 mph - 0.00 in Snow Light Snow
11:31 PM 24.8 °F 14.0 °F 21.2 °F 86% 30.13 in 1.2 mi WNW 11.5 mph - 0.00 in Snow Light Snow
11:34 PM 24.8 °F 13.4 °F 21.2 °F 86% 30.13 in 2.0 mi WNW 12.7 mph - 0.00 in Snow Light Snow
11:42 PM 26.6 °F 16.2 °F 19.4 °F 74% 30.12 in 9.0 mi WNW 11.5 mph - 0.00 in   Overcast
11:52 PM 26.1 °F 14.5 °F 19.0 °F 75% 30.15 in 10.0 mi WNW 13.8 mph 21.9 mph 0.00 in   Overcast